Tracking 28790 objects as of 18-Apr-2024
HD Live streaming from Space Station
objects crossing your sky now

BREEZE-M R/B

Track BREEZE-M R/B now!


NORAD ID: 38343
Int'l Code: 2012-026B
Perigee: 10,380.0 km
Apogee: 34,679.3 km
Inclination: 9.6 °
Period: 814.9 minutes
Semi major axis: 28900 km
RCS: 4.9161 m2 (large)
Launch date: May 17, 2012
Source: Commonwealth of Independent States (former USSR) (CIS)
Launch site: TYURATAM MISSILE AND SPACE COMPLEX (TTMTR)

Note: This is a ROCKET BODY
Your satellite tracking list
Your tracking list is empty




NASA's NSSDC Master Catalog

Two Line Element Set (TLE):
1 38343U 12026B   24108.21597830 -.00000049  00000-0  00000-0 0  9996
2 38343   9.6134 202.4180 4203938 283.5140  34.2084  1.76702099 76594
Source of the keplerian elements: AFSPC